IRNSS-1I (43286 NORAD) Tracking and Keplerian Element Data

This shows tracking and keplerian element data for the satellite.

Feedback or suggestion? Click here.




ElementValue
Catalog43286
NameIRNSS-1I
Epoch Orbit2823
Epoch Day348.83100279
Epoch Year2025
RAAN77.0653
Inclination29.1546
Eccentricity0.0021717
Argument of Perigee182.6132
Mean Anonmoly178.227
Mean Motion1.00272129
Decay Rate8.4E-07
L11 43286U 18035A 25348.83100279 .00000084 00000+0 00000+0 0 9992
L22 43286 29.1546 77.0653 0021717 182.6132 178.2270 1.00272129 28237



Live tracking and technical data element details for IRNSS-1I (NORAD 43286). IRNSS-1I can be tracked NOW for your location showing map with azimuth and elevation plus other details from your city location.







IsCatalogInMostPopularTable: catalog: 43286, numindb: 5979
Update: records affected: 1



GetName: 43286 IRNSS-1I

Hit Count: updated at: Mon, 18 May 2026 08:41:04 GMT